FLOCK 1C-3 (40041 NORAD) Tracking and Keplerian Element Data

This shows tracking and keplerian element data for the satellite.

Feedback or suggestion? Click here.




ElementValue
Catalog40041
NameFLOCK 1C-3
Epoch Orbit31755
Epoch Day115.01977829
Epoch Year2020
RAAN44.0415
Inclination97.9406
Eccentricity0.001452
Argument of Perigee102.0979
Mean Anonmoly258.1866
Mean Motion14.89901663
Decay Rate6.36E-06
L11 40041U 14033AH 20115.01977829 .00000636 00000-0 71924-4 0 9994
L22 40041 97.9406 44.0415 0014520 102.0979 258.1866 14.89901663317558



Live tracking and technical data element details for FLOCK 1C-3 (NORAD 40041). FLOCK 1C-3 can be tracked NOW for your location showing map with azimuth and elevation plus other details from your city location.







IsCatalogInMostPopularTable: catalog: 40041, numindb: 403
Update: records affected: 1



GetName: 40041 FLOCK 1C-3

Hit Count: updated at: Sat, 17 May 2025 09:35:20 GMT